EW2549 Weather Reports


time (UTC)temp
C
wind
direction
speed
KPH
gust
KPH
rain 1hr
cm
rain 24hr
cm
rain mn
cm
humidity
%
barometer
mb
20260906223044 32 75 0.0 4.8 0.00 0.00 0.00 31 1000.4
20260906221545 32 90 0.0 4.8 0.00 0.00 0.00 31 1000.6
20260906220115 33 340 0.0 6.4 0.00 0.00 0.00 30 1000.8
20260906214541 33 71 0.0 16.1 0.00 0.00 0.00 31 1001.0
20260906213044 32 61 0.0 6.4 0.00 0.00 0.00 31 1001.3
20260906211539 32 110 0.0 4.8 0.00 0.00 0.00 32 1001.6
20260906210053 31 123 1.6 12.9 0.00 0.00 0.00 31 1001.8
20260906204532 32 78 0.0 8.0 0.00 0.00 0.00 29 1001.9
20260906203034 32 98 0.0 12.9 0.00 0.00 0.00 31 1002.0
20260906201628 31 115 0.0 9.7 0.00 0.00 0.00 32 1002.1
20260906200036 31 77 0.0 11.3 0.00 0.00 0.00 34 1002.3
20260906194521 31 55 0.0 8.0 0.00 0.00 0.00 34 1002.3
20260906193019 31 5 0.0 12.9 0.00 0.00 0.00 34 1002.6
20260906191516 31 99 0.0 6.4 0.00 0.00 0.00 35 1002.8
20260906190012 30 73 0.0 8.0 0.00 0.00 0.00 34 1003.0
20260906184509 30 320 0.0 8.0 0.00 0.00 0.00 35 1003.4
20260906183008 30 42 0.0 1.6 0.00 0.00 0.00 36 1003.7
20260906181501 28 84 0.0 0.0 0.00 0.00 0.00 38 1003.9
20260906180059 28 115 0.0 11.3 0.00 0.00 0.00 39 1004.1
20260906174556 28 126 0.0 0.0 0.00 0.00 0.00 43 1004.5
20260906173053 27 37 0.0 0.0 0.00 0.00 0.00 45 1004.7
20260906171603 27 74 0.0 9.7 0.00 0.00 0.00 45 1005.0
20260906170054 26 144 0.0 6.4 0.00 0.00 0.00 43 1005.4
20260906164554 26 187 0.0 6.4 0.00 0.00 0.00 47 1005.5
20260906163050 25 101 0.0 0.0 0.00 0.00 0.00 50 1005.5
20260906161540 25 82 0.0 6.4 0.00 0.00 0.00 52 1005.3
20260906160048 24 104 0.0 4.8 0.00 0.00 0.00 56 1005.4
20260906154535 23 105 0.0 3.2 0.00 0.00 0.00 60 1005.3
20260906153029 22 59 0.0 0.0 0.00 0.00 0.00 63 1005.3
20260906151526 21 301 0.0 0.0 0.00 0.00 0.00 67 1005.4
20260906150043 20 340 0.0 0.0 0.00 0.00 0.00 73 1005.6
20260906144534 19 340 0.0 0.0 0.00 0.00 0.00 77 1005.6
20260906143033 18 340 0.0 0.0 0.00 0.00 0.00 80 1005.7
20260906141535 17 325 0.0 0.0 0.00 0.00 0.00 83 1005.8
20260906134521 15 325 0.0 0.0 0.00 0.00 0.00 83 1005.8
20260906133020 14 325 0.0 0.0 0.00 0.00 0.00 81 1005.7
20260906131526 14 326 0.0 0.0 0.00 0.00 0.00 77 1005.7
20260906130032 14 326 0.0 0.0 0.00 0.00 0.00 78 1005.6
20260906124515 15 326 0.0 0.0 0.00 0.00 0.00 77 1005.5
20260906123013 15 326 0.0 0.0 0.00 0.00 0.00 75 1005.4
20260906121513 15 326 0.0 0.0 0.00 0.00 0.00 74 1005.5
20260906120010 15 326 0.0 0.0 0.00 0.00 0.00 74 1005.3
20260906114510 15 326 0.0 0.0 0.00 0.00 0.00 73 1005.4
20260906113006 15 326 0.0 0.0 0.00 0.00 0.00 74 1005.2
20260906111504 16 326 0.0 0.0 0.00 0.00 0.00 75 1005.0
20260906110002 16 326 0.0 0.0 0.00 0.00 0.00 74 1005.1
20260906104500 16 326 0.0 0.0 0.00 0.00 0.00 75 1004.9
20260906103100 16 326 0.0 0.0 0.00 0.00 0.00 74 1005.0
20260906101558 16 320 0.0 0.0 0.00 0.00 0.00 68 1005.0
20260906100054 16 320 0.0 0.0 0.00 0.00 0.00 64 1004.8
20260906094631 16 320 0.0 0.0 0.00 0.00 0.00 63 1005.0
20260906093101 17 320 0.0 0.0 0.00 0.00 0.00 63 1004.9
20260906091548 17 320 0.0 0.0 0.00 0.00 0.00 61 1004.8
20260906090044 17 320 0.0 0.0 0.00 0.00 0.00 60 1004.6
20260906084541 18 320 0.0 0.0 0.00 0.00 0.00 58 1004.6
20260906083038 18 298 0.0 0.0 0.00 0.00 0.00 58 1004.4
20260906081546 18 298 0.0 0.0 0.00 0.00 0.00 56 1004.2
20260906080036 19 298 0.0 0.0 0.00 0.00 0.00 55 1004.1
20260906074534 19 298 0.0 0.0 0.00 0.00 0.00 54 1004.0
20260906073033 19 298 0.0 0.0 0.00 0.00 0.00 56 1004.0
20260906071532 19 298 0.0 0.0 0.00 0.00 0.00 57 1004.0
20260906070027 19 246 0.0 0.0 0.00 0.00 0.00 59 1004.1
20260906064624 20 246 0.0 0.0 0.00 0.00 0.00 57 1004.2
20260906063028 21 246 0.0 0.0 0.00 0.00 0.00 55 1004.4
20260906061532 21 246 0.0 0.0 0.00 0.00 0.00 55 1004.4
20260906060016 21 244 0.0 8.0 0.00 0.00 0.00 53 1004.5
20260906054517 21 254 0.0 4.8 0.00 0.00 0.00 53 1004.5
20260906053018 22 299 0.0 0.0 0.00 0.00 0.00 53 1004.2
20260906051515 22 256 0.0 0.0 0.00 0.00 0.00 49 1005.1
20260906050019 22 212 0.0 0.0 0.00 0.00 0.00 48 1005.6
20260906044513 22 77 0.0 0.0 0.00 0.00 0.00 43 1005.4
20260906043012 22 69 0.0 0.0 0.00 0.00 0.00 42 1004.7
20260906041512 22 69 0.0 0.0 0.00 0.00 0.00 43 1004.3
20260906040011 22 69 0.0 0.0 0.00 0.00 0.00 40 1004.4
20260906034512 22 71 0.0 0.0 0.00 0.00 0.00 38 1004.1
20260906033010 23 327 0.0 0.0 0.00 0.00 0.00 37 1003.9
20260906031509 24 319 0.0 0.0 0.00 0.00 0.00 33 1003.7
20260906030009 25 319 0.0 0.0 0.00 0.00 0.00 32 1003.3
20260906024508 26 319 0.0 0.0 0.00 0.00 0.00 30 1003.0
20260906023010 26 319 0.0 0.0 0.00 0.00 0.00 29 1002.7
20260906021507 26 319 0.0 3.2 0.00 0.00 0.00 28 1002.6
20260906020006 27 330 0.0 1.6 0.00 0.00 0.00 28 1002.5
20260906014506 27 246 0.0 4.8 0.00 0.00 0.00 29 1002.4
20260906013005 27 313 1.6 9.7 0.00 0.00 0.00 28 1002.3
20260906011511 28 331 0.0 4.8 0.00 0.00 0.00 27 1002.3
20260906010004 28 281 0.0 6.4 0.00 0.00 0.00 27 1002.3
20260906004503 29 317 0.0 11.3 0.00 0.00 0.00 25 1002.1
20260906001502 31 5 0.0 1.6 0.00 0.00 0.00 23 1002.1
20260906000001 32 18 0.0 0.0 0.00 0.00 0.00 23 1002.0
20260905234502 33 65 0.0 0.0 0.00 0.00 0.00 22 1002.0
20260905233111 33 65 0.0 0.0 0.00 0.00 0.00 21 1002.0
20260905231600 34 38 0.0 0.0 0.00 0.00 0.00 20 1001.8
20260905230059 35 113 0.0 4.8 0.00 0.00 0.00 18 1001.8
20260905224608 34 87 0.0 6.4 0.00 0.00 0.00 18 1001.8